Weather History for Needles, CA

Change the Weather History Date:

Monday, November 7, 2011

  Actual Average Record
Temperature  
Mean Temperature 54 °F -  
Max Temperature 63 °F 78 °F 90 °F (2007)
Min Temperature 46 °F 52 °F 41 °F (1993)
Degree Days  
Heating Degree Days 10    
Growing Degree Days 4 (Base 50)    
Moisture  
Dew Point 37 °F    
Average Humidity 57    
Maximum Humidity 90    
Minimum Humidity 26    
Precipitation  
Precipitation 0.01 in - - ()
Sea Level Pressure  
Sea Level Pressure 30.03 in    
Wind  
Wind Speed 5 mph (WNW)    
Max Wind Speed 9 mph    
Max Gust Speed -    
Visibility 10 miles    
Events      
Averages and records for this station are not official NWS values.
T = Trace of Precipitation, MM = Missing Value Source: NWS Daily Summary

Daily Weather History Graph

Daily Weather History Graph

Search for Another Location

Airport:

Trip Planner

Search our weather history database for the weather conditions in past years. The results will help you decide how hot, cold, wet, or windy it might be!

Date:

Astronomy

Nov. 07, 2011 Rise Set
Actual Time 6:04 AM PST 4:39 PM PST
Civil Twilight 5:38 AM PST 5:05 PM PST
Nautical Twilight 5:08 AM PST 5:35 PM PST
Astronomical Twilight 4:38 AM PST 6:05 PM PST
Moon 2:48 PM PST (11/7) 3:16 AM PST (11/7)
Length of Visible Light 11h 27m
Length of Day
10h 34m
Waxing Gibbous, 92% of the Moon is Illuminated
Nov 7
Waxing Gibbous
Nov 10
Full
Nov 18
Last Quarter
Nov 24
New
Dec 2
First Quarter

Hourly Weather History & Observations

Time (PST) Temp. Windchill Dew Point Humidity Pressure Visibility Wind Dir Wind Speed Gust Speed Precip Events Conditions
12:07 AM 50.0 °F - 44.6 °F 82% 29.98 in 10.0 mi West 5.8 mph - N/A   Scattered Clouds
12:56 AM 48.0 °F - 45.0 °F 89% 29.94 in 10.0 mi West 6.9 mph - N/A   Clear
1:56 AM 46.9 °F - 44.1 °F 90% 29.94 in 10.0 mi WSW 5.8 mph - N/A   Clear
2:56 AM 46.9 °F - 43.0 °F 86% 29.94 in 10.0 mi West 3.5 mph - N/A   Clear
3:56 AM 46.0 °F - 42.1 °F 86% 29.94 in 10.0 mi Calm Calm - N/A   Clear
4:56 AM 46.9 °F - 39.9 °F 77% 29.96 in 10.0 mi NW 6.9 mph - 0.01 in   Clear
5:56 AM 46.0 °F 42.5 °F 41.0 °F 83% 29.98 in 10.0 mi West 6.9 mph - N/A   Clear
7:56 AM 53.1 °F - 41.0 °F 64% 30.02 in 10.0 mi NNW 3.5 mph - N/A   Clear
9:56 AM 57.9 °F - 39.0 °F 49% 30.03 in 10.0 mi Calm Calm - N/A   Clear
10:56 AM 57.9 °F - 37.9 °F 47% 30.03 in 10.0 mi Calm Calm - N/A   Clear
11:56 AM 61.0 °F - 36.0 °F 39% 30.01 in 10.0 mi Variable 5.8 mph - N/A   Clear
12:56 PM 62.1 °F - 34.0 °F 35% 30.01 in 10.0 mi NE 9.2 mph - N/A   Clear
1:56 PM 63.0 °F - 30.9 °F 30% 30.01 in 10.0 mi NNE 6.9 mph - N/A   Clear
3:56 PM 63.0 °F - 27.0 °F 26% 30.03 in 10.0 mi NE 5.8 mph - N/A   Clear
4:56 PM 60.1 °F - 30.9 °F 33% 30.05 in 10.0 mi Calm Calm - N/A   Clear
5:56 PM 57.0 °F - 36.0 °F 45% 30.08 in 10.0 mi West 8.1 mph - N/A   Clear
6:56 PM 55.0 °F - 36.0 °F 49% 30.09 in 10.0 mi WNW 5.8 mph - N/A   Clear
7:56 PM 53.1 °F - 35.1 °F 50% 30.10 in 10.0 mi West 8.1 mph - N/A   Clear
8:56 PM 53.1 °F - 33.1 °F 47% 30.11 in 10.0 mi West 9.2 mph - N/A   Clear
9:56 PM 55.0 °F - 28.9 °F 37% 30.12 in 10.0 mi Calm Calm - N/A   Clear
10:56 PM 50.0 °F - 34.0 °F 54% 30.13 in 10.0 mi Calm Calm - N/A   Clear
11:56 PM 50.0 °F - 33.1 °F 52% 30.14 in 10.0 mi West 6.9 mph - N/A   Clear